Fort Loudoun Lake Weather Center

Moon Phase Calendar



Fort Loudoun Lake Water Level
Online Cameras

 


      

Current Conditions in Louisville
2/7/2023 8:39:18 PM

52°F
Feels Like 50
Clouds
Humidity
60%
Pressure
30.24"
Wind
5.8 mph (S)
Dew Point
39°F
UV Index
0/10 (Low)
Visibility
6 mi

Hourly Forecast

Date & Time Tue, Feb 7
8:00 PM
Tue, Feb 7
9:00 PM
Tue, Feb 7
10:00 PM
Tue, Feb 7
11:00 PM
Wed, Feb 8
12:00 AM
Wed, Feb 8
1:00 AM
Wed, Feb 8
2:00 AM
Wed, Feb 8
3:00 AM
Wed, Feb 8
4:00 AM
Wed, Feb 8
5:00 AM
Wed, Feb 8
6:00 AM
Wed, Feb 8
7:00 AM
Wed, Feb 8
8:00 AM
Wed, Feb 8
9:00 AM
Wed, Feb 8
10:00 AM
Wed, Feb 8
11:00 AM
Wed, Feb 8
12:00 PM
Wed, Feb 8
1:00 PM
Wed, Feb 8
2:00 PM
Wed, Feb 8
3:00 PM
Wed, Feb 8
4:00 PM
Wed, Feb 8
5:00 PM
Wed, Feb 8
6:00 PM
Wed, Feb 8
7:00 PM
Wed, Feb 8
8:00 PM
Wed, Feb 8
9:00 PM
Wed, Feb 8
10:00 PM
Wed, Feb 8
11:00 PM
Thu, Feb 9
12:00 AM
Thu, Feb 9
1:00 AM
Thu, Feb 9
2:00 AM
Thu, Feb 9
3:00 AM
Thu, Feb 9
4:00 AM
Thu, Feb 9
5:00 AM
Thu, Feb 9
6:00 AM
Thu, Feb 9
7:00 AM
Thu, Feb 9
8:00 AM
Thu, Feb 9
9:00 AM
Thu, Feb 9
10:00 AM
Thu, Feb 9
11:00 AM
Thu, Feb 9
12:00 PM
Thu, Feb 9
1:00 PM
Thu, Feb 9
2:00 PM
Thu, Feb 9
3:00 PM
Thu, Feb 9
4:00 PM
Thu, Feb 9
5:00 PM
Thu, Feb 9
6:00 PM
Thu, Feb 9
7:00 PM
Condition
Clouds

Clouds

Clouds

Clouds

Clouds

Clouds

Clouds

Clouds

Clouds

Clouds

Clouds

Clouds

Clouds

Clouds

Clouds

Clouds

Clouds

Clouds

Clouds

Clouds

Clouds

Clouds

Clouds

Clouds

Clouds

Clouds

Clouds

Clouds

Clouds

Clouds

Clouds

Clouds

Clouds

Clouds

Clouds

Clouds

Rain

Rain

Rain

Rain

Rain

Rain

Rain

Clouds

Clouds

Clouds

Clouds

Clouds
Temperature 52°F52°F52°F51°F51°F51°F49°F49°F50°F50°F48°F49°F50°F51°F52°F55°F55°F59°F61°F63°F62°F59°F57°F56°F56°F54°F54°F53°F54°F55°F55°F56°F56°F57°F59°F62°F59°F58°F60°F61°F60°F57°F57°F55°F56°F55°F53°F50°F
Feels Like 50°F50°F50°F49°F49°F49°F48°F47°F49°F50°F48°F49°F50°F49°F51°F53°F54°F58°F60°F62°F61°F59°F56°F55°F55°F53°F53°F52°F53°F54°F55°F55°F55°F56°F59°F61°F59°F58°F60°F60°F59°F57°F56°F54°F55°F54°F52°F49°F
Cloudiness 46%40%50%58%68%78%100%100%100%100%100%100%100%100%100%100%100%100%100%100%100%100%100%100%100%97%98%99%99%99%100%100%100%100%100%100%100%100%100%100%100%100%98%99%99%99%100%100%
Visibility 6 mi6 mi6 mi6 mi6 mi6 mi6 mi6 mi6 mi6 mi6 mi6 mi6 mi6 mi6 mi6 mi6 mi6 mi6 mi6 mi6 mi6 mi6 mi6 mi6 mi6 mi6 mi6 mi6 mi6 mi6 mi6 mi6 mi6 mi6 mi6 mi3 mi6 mi6 mi6 mi6 mi6 mi6 mi6 mi6 mi6 mi6 mi6 mi
Precipitation 0%0%0%0%0%0%0%0%0%0%0%0%8%10%4%0%0%0%0%0%5%6%2%2%0%0%0%0%0%0%11%11%7%7%2%7%79%100%100%100%100%100%34%35%38%37%29%29%
Humidity 64%60%62%67%70%72%79%81%78%78%81%80%80%79%77%72%72%65%63%62%65%74%78%80%82%85%87%89%90%88%87%87%87%84%76%69%83%86%79%79%89%88%79%78%77%79%82%85%
Dew Point 40°F39°F39°F40°F41°F42°F43°F43°F43°F43°F43°F43°F44°F44°F45°F46°F46°F47°F48°F50°F50°F51°F50°F50°F50°F50°F50°F50°F50°F51°F52°F52°F52°F52°F52°F52°F54°F54°F54°F54°F56°F54°F50°F48°F49°F49°F47°F46°F
Pressure 30.24"30.24"30.24"30.24"30.27"30.24"30.27"30.27"30.27"30.27"30.27"30.3"30.3"30.3"30.3"30.3"30.3"30.27"30.24"30.21"30.18"30.18"30.18"30.18"30.18"30.18"30.15"30.15"30.12"30.09"30.09"30.06"30.03"30"30"29.97"30.03"30.03"30"30.03"30.03"30.06"30.06"30.06"30.06"30.06"30.09"30.12"
Wind Speed 4.6 mph4.2 mph2.5 mph3.1 mph3.8 mph3.9 mph4.2 mph4.1 mph3.6 mph2.9 mph2.5 mph3.1 mph1.7 mph0.5 mph1.8 mph2.5 mph2.9 mph2.2 mph1.5 mph1.3 mph0.9 mph2.4 mph3 mph1.1 mph1.2 mph1.8 mph2.6 mph2.4 mph3.3 mph3.2 mph3.4 mph3 mph5.5 mph7.3 mph10.4 mph12.9 mph15.8 mph15.4 mph15.1 mph16.1 mph14.9 mph13.1 mph14.3 mph13 mph11.7 mph10.1 mph7.6 mph6.1 mph
Wind
Direction
215°
SW
187°
S
196°
SSW
252°
WSW
225°
SW
227°
SW
241°
WSW
230°
SW
228°
SW
245°
WSW
239°
WSW
211°
SSW
206°
SSW
44°
NE
34°
NE
73°
ENE
92°
E
87°
E
106°
ESE
142°
SE
233°
SW
27°
NNE
63°
ENE
92°
E
103°
ESE
135°
SE
121°
ESE
177°
S
149°
SSE
146°
SE
139°
SE
156°
SSE
157°
SSE
164°
SSE
192°
SSW
198°
SSW
205°
SSW
186°
S
201°
SSW
211°
SSW
232°
SW
235°
SW
235°
SW
236°
SW
229°
SW
225°
SW
230°
SW
237°
WSW

Daily Forecast

Date High Low Precip. Humidity
Today
Feb 7

Clouds
62 °F
41 °F
0%
51%
Wednesday
Feb 8

Clouds
63 °F
48 °F
10%
72%
Thursday
Feb 9

Rain
62 °F
46 °F
100%
89%
Friday
Feb 10

Clouds
55 °F
42 °F
4%
66%
Saturday
Feb 11

Rain
44 °F
41 °F
100%
91%
Sunday
Feb 12

Snow
44 °F
33 °F
100%
91%
Monday
Feb 13

Clouds
53 °F
31 °F
0%
56%
Tuesday
Feb 14

Clouds
52 °F
38 °F
24%
72%
Wednesday
Feb 15

Rain
67 °F
52 °F
95%
56%
Thursday
Feb 16

Rain
68 °F
46 °F
100%
77%
Friday
Feb 17

Rain
48 °F
33 °F
56%
42%
Saturday
Feb 18

Clouds
53 °F
33 °F
0%
38%
Sunday
Feb 19

Rain
45 °F
41 °F
100%
88%
Monday
Feb 20

Rain
54 °F
45 °F
100%
92%
Tuesday
Feb 21

Rain
70 °F
50 °F
100%
74%
Wednesday
Feb 22

Clouds
62 °F
45 °F
0%
61%

Temperature 8-14 Day Outlook



Precipitation 8-14 Day Outlook




Quick Links
Fort Loudoun Lake News
Fort Loudoun Lake Photos
Fort Loudoun Lake Videos




About Us
Contact Us
Site Map
Search Site
Advertise With Us
   
www.FortLoudoun.info
THE FORT LOUDOUN LAKE WEBSITE

Copyright 2023, Lakes Online
Privacy    |    Legal